Falls City, NE

2:08 PM CST on January 20, 2017 (GMT -0600)
Brenner

Weather History for KFNB - February, 2013

Change the Weather History Date:

Sunday, February 10, 2013

  Actual Average Record
Temperature  
Mean Temperature 41 °F -  
Max Temperature 48 °F 40 °F 74 °F (1999)
Min Temperature 34 °F 19 °F -10 °F (1989)
Degree Days  
Heating Degree Days 24    
Moisture  
Dew Point 33 °F    
Average Humidity 75    
Maximum Humidity 93    
Minimum Humidity 50    
Precipitation  
Precipitation 0.01 in - - ()
Sea Level Pressure  
Sea Level Pressure 29.55 in    
Wind  
Wind Speed 19 mph (SSW)    
Max Wind Speed 30 mph    
Max Gust Speed 46 mph    
Visibility 9 miles    
Events Rain    
Averages and records for this station are not official NWS values.
T = Trace of Precipitation, MM = Missing Value Source: NWS Daily Summary

Daily Weather History Graph

Daily Weather History Graph

Search for Another Location

Airport or City:

Trip Planner

Search our weather history database for the weather conditions in past years. The results will help you decide how hot, cold, wet, or windy it might be!

Date:

Astronomy

Feb. 10, 2013 Rise Set
Actual Time 7:21 AM CST 5:52 PM CST
Civil Twilight 6:53 AM CST 6:20 PM CST
Nautical Twilight 6:21 AM CST 6:52 PM CST
Astronomical Twilight 5:49 AM CST 7:24 PM CST
Moon 7:11 AM CST (2/10) 6:44 PM CST (2/10)
Length of Visible Light 11h 27m
Length of Day
10h 31m
New Moon, 0% of the Moon is Illuminated
Feb 10
New Moon
Feb 17
First Quarter
Feb 25
Full
Mar 4
Last Quarter
Mar 11
New

Hourly Weather History & Observations

Time (CST) Temp. Windchill Dew Point Humidity Pressure Visibility Wind Dir Wind Speed Gust Speed Precip Events Conditions
12:09 AM 41.0 °F 33.9 °F 35.6 °F 81% 29.71 in 10.0 mi SSE 12.7 mph - N/A   Overcast
12:53 AM 41.0 °F 33.1 °F 37.0 °F 86% 29.71 in 10.0 mi SSE 15.0 mph - N/A   Overcast
1:32 AM 41.0 °F 33.5 °F 37.4 °F 87% 29.65 in 7.0 mi SE 13.8 mph 23.0 mph N/A   Overcast
1:53 AM 41.0 °F 32.2 °F 39.0 °F 93% 29.64 in 6.0 mi SSE 18.4 mph 28.8 mph N/A   Overcast
2:53 AM 41.0 °F 33.5 °F 39.0 °F 93% 29.59 in 4.0 mi SE 13.8 mph 23.0 mph 0.00 in   Overcast
3:43 AM 42.8 °F 34.8 °F 39.2 °F 87% 29.54 in 5.0 mi SE 17.3 mph 31.1 mph N/A   Overcast
3:53 AM 42.1 °F 34.2 °F 39.9 °F 92% 29.54 in 5.0 mi SE 16.1 mph 24.2 mph 0.00 in Rain Light Rain
4:49 AM 42.8 °F 34.5 °F 39.2 °F 87% 29.47 in 8.0 mi SSE 18.4 mph 25.3 mph 0.01 in   Overcast
4:53 AM 42.1 °F 33.6 °F 39.9 °F 92% 29.48 in 8.0 mi SSE 18.4 mph - 0.01 in   Overcast
5:53 AM 43.0 °F 34.5 °F 41.0 °F 93% 29.44 in 3.0 mi SSE 19.6 mph 26.5 mph 0.00 in Rain Light Rain
6:53 AM 45.0 °F 36.9 °F 43.0 °F 93% 29.44 in 8.0 mi South 20.7 mph 32.2 mph 0.00 in Rain Light Rain
7:30 AM 44.6 °F 36.4 °F 42.8 °F 93% 29.40 in 10.0 mi South 20.7 mph 28.8 mph 0.00 in   Overcast
7:53 AM 44.6 °F 37.2 °F 42.8 °F 93% 29.40 in 10.0 mi South 17.3 mph 25.3 mph N/A   Mostly Cloudy
8:03 AM 44.6 °F 38.1 °F 42.8 °F 93% 29.39 in 10.0 mi South 13.8 mph 25.3 mph N/A   Partly Cloudy
8:53 AM 46.9 °F - 42.1 °F 83% 29.38 in 10.0 mi South 16.1 mph 27.6 mph N/A   Mostly Cloudy
9:14 AM 46.4 °F 39.5 °F 41.0 °F 81% 29.36 in 10.0 mi SSW 17.3 mph 28.8 mph N/A   Overcast
9:28 AM 46.4 °F 39.0 °F 39.2 °F 76% 29.36 in 10.0 mi SSW 19.6 mph 29.9 mph N/A   Mostly Cloudy
9:53 AM 48.0 °F - 35.1 °F 61% 29.37 in 10.0 mi SSW 23.0 mph 38.0 mph N/A   Mostly Cloudy
10:53 AM 45.0 °F 35.2 °F 32.0 °F 60% 29.38 in 10.0 mi SW 29.9 mph 36.8 mph N/A   Mostly Cloudy
11:53 AM 46.0 °F 36.9 °F 28.0 °F 50% 29.40 in 10.0 mi SW 28.8 mph 39.1 mph N/A   Mostly Cloudy
12:53 PM 43.0 °F 32.5 °F 28.0 °F 56% 29.40 in 10.0 mi SW 29.9 mph 39.1 mph N/A   Overcast
1:53 PM 43.0 °F 32.5 °F 28.9 °F 58% 29.42 in 10.0 mi WSW 29.9 mph 46.0 mph N/A   Overcast
2:53 PM 41.0 °F 30.7 °F 28.0 °F 60% 29.45 in 10.0 mi WSW 25.3 mph 42.6 mph N/A   Overcast
3:30 PM 39.2 °F 27.6 °F 28.4 °F 65% 29.48 in 10.0 mi West 28.8 mph 40.3 mph N/A   Overcast
3:53 PM 37.9 °F 25.9 °F 28.9 °F 70% 29.52 in 10.0 mi West 28.8 mph 39.1 mph N/A   Overcast
4:53 PM 37.0 °F 25.6 °F 28.0 °F 70% 29.57 in 10.0 mi West 24.2 mph 39.1 mph N/A   Overcast
5:53 PM 36.0 °F 24.4 °F 27.0 °F 70% 29.62 in 10.0 mi West 23.0 mph 36.8 mph N/A   Overcast
6:00 PM 35.6 °F 23.7 °F 26.6 °F 70% 29.61 in 10.0 mi West 24.2 mph 32.2 mph N/A   Overcast
6:53 PM 36.0 °F 24.7 °F 25.0 °F 64% 29.67 in 10.0 mi West 21.9 mph 29.9 mph N/A   Overcast
7:00 PM 35.6 °F 23.2 °F 24.8 °F 65% 29.66 in 10.0 mi West 26.5 mph 35.7 mph N/A   Overcast
7:26 PM 35.6 °F 23.2 °F 21.2 °F 56% 29.67 in 10.0 mi West 26.5 mph 36.8 mph N/A   Overcast
7:53 PM 35.1 °F 23.0 °F 23.0 °F 61% 29.71 in 10.0 mi West 24.2 mph 34.5 mph N/A   Overcast
8:53 PM 34.0 °F 20.3 °F 21.9 °F 61% 29.76 in 10.0 mi WNW 29.9 mph 38.0 mph N/A   Scattered Clouds
9:53 PM 34.0 °F 20.8 °F 23.0 °F 64% 29.81 in 10.0 mi WNW 27.6 mph 36.8 mph N/A   Scattered Clouds
10:53 PM 35.1 °F 25.5 °F 25.0 °F 67% 29.82 in 10.0 mi West 15.0 mph - N/A   Overcast
11:53 PM 37.0 °F 25.9 °F 25.0 °F 62% 29.86 in 10.0 mi WNW 23.0 mph 42.6 mph N/A   Overcast